IU1JVO-13 Weather Reports


Display with metric or nautical units.
time (UTC)temp
F
wind
direction
speed
MPH
gust
MPH
rain 1hr
in
rain 24hr
in
rain mn
in
humidity
%
barometer
mb
20260510130507 55 43 0.0 1.0 0.02 0.51 0.51 90 1015.3
20260510130356 55 43 0.0 2.0 0.02 0.51 0.51 90 1015.3
20260510125856 55 51 0.0 3.0 0.01 0.50 0.50 90 1015.3
20260510125507 54 61 0.0 3.0 0.01 0.50 0.50 90 1015.3
20260510125356 54 61 0.0 3.0 0.01 0.50 0.50 90 1015.5
20260510125125 54 51 1.0 3.0 0.01 0.50 0.50 90 1015.5
20260510124507 54 42 2.0 3.0 0.01 0.50 0.50 90 1015.6
20260510124356 54 39 2.0 3.0 0.01 0.50 0.50 90 1015.2
20260510123856 54 39 2.0 3.0 0.01 0.50 0.50 89 1015.2
20260510123504 54 32 1.0 3.0 0.01 0.50 0.50 89 1015.3
20260510123355 54 31 1.0 3.0 0.01 0.50 0.50 89 1015.2
20260510122903 55 41 0.0 3.0 0.01 0.50 0.50 89 1015.2
20260510122506 55 60 1.0 3.0 0.00 0.50 0.50 89 1015.2
20260510122355 55 58 1.0 3.0 0.00 0.50 0.50 90 1015.3
20260510121856 55 32 1.0 4.0 0.00 0.50 0.50 89 1015.3
20260510121505 55 34 0.0 4.0 0.00 0.50 0.50 90 1015.3
20260510121357 55 42 0.0 4.0 0.00 0.50 0.50 90 1015.3
20260510121129 55 46 1.0 4.0 0.00 0.50 0.50 90 1015.5
20260510120634 55 25 1.0 4.0 0.00 0.50 0.50 89 1015.3
20260510120616 55 28 1.0 4.0 0.00 0.50 0.50 89 1015.3
20260510115858 55 30 1.0 3.0 0.00 0.50 0.50 89 1015.6
20260510115503 55 50 1.0 3.0 0.00 0.50 0.50 89 1015.5
20260510115357 55 56 1.0 3.0 0.00 0.50 0.50 89 1015.3
20260510114857 55 75 1.0 3.0 0.00 0.50 0.50 89 1015.5
20260510114630 55 77 1.0 3.0 0.00 0.50 0.50 89 1015.3
20260510114613 55 79 1.0 3.0 0.00 0.50 0.50 89 1015.3
20260510113856 55 71 1.0 3.0 0.00 0.50 0.50 89 1015.3
20260510113502 55 66 1.0 3.0 0.00 0.50 0.50 89 1015.3
20260510113355 55 68 1.0 3.0 0.00 0.50 0.50 88 1015.3
20260510112856 55 68 0.0 3.0 0.00 0.50 0.50 88 1015.1
20260510112507 55 67 0.0 3.0 0.00 0.50 0.50 88 1015.3
20260510112355 55 67 0.0 3.0 0.00 0.50 0.50 88 1015.5
20260510111900 55 51 0.0 3.0 0.00 0.50 0.50 88 1015.2
20260510111634 55 32 0.0 3.0 0.00 0.50 0.50 88 1015.2
20260510111622 55 38 0.0 3.0 0.00 0.50 0.50 88 1015.2
20260510110856 55 43 0.0 2.0 0.00 0.50 0.50 88 1015.2
20260510110503 55 38 0.0 3.0 0.00 0.50 0.50 89 1015.2
20260510110356 55 37 0.0 3.0 0.00 0.50 0.50 89 1015.3
20260510110121 55 18 0.0 3.0 0.00 0.50 0.50 89 1015.3
20260510105502 55 41 1.0 3.0 0.00 0.50 0.50 89 1015.2
20260510105354 55 45 1.0 3.0 0.00 0.50 0.50 89 1015.3
20260510104854 55 61 1.0 3.0 0.00 0.50 0.50 90 1015.3
20260510104502 55 56 0.0 3.0 0.00 0.50 0.50 90 1015.3
20260510104352 55 61 0.0 3.0 0.00 0.50 0.50 90 1015.3
20260510103852 55 80 2.0 3.0 0.00 0.50 0.50 90 1015.2
20260510103633 55 83 2.0 3.0 0.00 0.50 0.50 90 1015.3
20260510103615 55 81 2.0 3.0 0.00 0.50 0.50 90 1015.2
20260510102851 55 83 2.0 3.0 0.00 0.50 0.50 90 1015.2
20260510102502 55 84 2.0 3.0 0.00 0.50 0.50 90 1015.2
20260510102351 55 85 2.0 3.0 0.00 0.50 0.50 90 1015.3
20260510101850 55 82 2.0 3.0 0.00 0.50 0.50 91 1015.2
20260510101503 55 77 2.0 2.0 0.00 0.50 0.50 91 1015.1
20260510101350 55 75 2.0 2.0 0.00 0.50 0.50 91 1015.6
20260510100849 54 70 2.0 2.0 0.00 0.50 0.50 91 1015.5
20260510100632 54 51 1.0 2.0 0.01 0.50 0.50 91 1015.5
20260510100614 54 56 1.0 2.0 0.00 0.50 0.50 91 1015.3
20260510095848 54 36 0.0 1.0 0.01 0.50 0.50 91 1015.3
20260510095503 54 36 0.0 1.0 0.01 0.50 0.50 91 1015.3
20260510095348 54 36 0.0 1.0 0.01 0.50 0.50 91 1015.5
20260510095116 54 35 0.0 1.0 0.01 0.50 0.50 90 1015.6
20260510094502 54 24 0.0 1.0 0.01 0.50 0.50 90 1015.6
20260510094347 54 21 0.0 1.0 0.01 0.50 0.50 90 1015.5
20260510093847 54 8 0.0 1.0 0.01 0.50 0.50 90 1015.5
20260510093621 54 8 0.0 1.0 0.01 0.50 0.50 91 1015.6
20260510093605 54 8 0.0 1.0 0.01 0.50 0.50 91 1015.6
20260510092847 54 7 0.0 2.0 0.01 0.50 0.50 90 1015.6
20260510092503 54 4 0.0 2.0 0.01 0.50 0.50 90 1015.5
20260510092347 54 4 0.0 2.0 0.01 0.50 0.50 90 1015.6
20260510091847 54 1 0.0 2.0 0.01 0.50 0.50 90 1015.3
20260510091625 54 7 0.0 2.0 0.02 0.50 0.50 90 1015.6
20260510091607 54 6 0.0 2.0 0.02 0.50 0.50 90 1015.6
20260510090847 54 22 0.0 1.0 0.02 0.50 0.50 90 1015.6
20260510090505 54 30 0.0 1.0 0.02 0.50 0.50 90 1015.5
20260510090346 54 33 0.0 1.0 0.02 0.49 0.49 90 1015.5
20260510085845 54 36 0.0 1.0 0.02 0.49 0.49 90 1015.5
20260510085502 54 36 0.0 1.0 0.02 0.49 0.49 90 1015.3
20260510085346 54 35 0.0 1.0 0.02 0.49 0.49 90 1015.3
20260510084850 54 26 0.0 1.0 0.02 0.49 0.49 91 1015.5
20260510084502 54 16 0.0 2.0 0.02 0.49 0.49 91 1015.5
20260510084346 54 13 0.0 2.0 0.02 0.49 0.49 91 1015.3
20260510083846 54 3 0.0 2.0 0.03 0.49 0.49 91 1015.3
20260510083501 54 358 0.0 2.0 0.03 0.49 0.49 91 1015.2
20260510083346 54 358 0.0 2.0 0.03 0.49 0.49 91 1015.2
20260510082846 54 356 1.0 2.0 0.04 0.49 0.49 90 1015.2
20260510082503 53 353 1.0 2.0 0.04 0.49 0.49 90 1015.2
20260510082346 53 353 1.0 2.0 0.04 0.49 0.49 90 1015.2
20260510081847 53 352 1.0 2.0 0.05 0.49 0.49 90 1015.2
20260510081501 53 353 1.0 2.0 0.04 0.48 0.48 91 1015.2
20260510081346 53 352 1.0 2.0 0.04 0.48 0.48 90 1015.2
20260510080846 53 351 1.0 2.0 0.04 0.48 0.48 91 1015.3
20260510080624 53 348 1.0 2.0 0.04 0.47 0.47 91 1015.2
20260510080612 53 349 1.0 2.0 0.04 0.47 0.47 91 1015.1
20260510075846 53 351 1.0 3.0 0.05 0.47 0.47 91 1015.2
20260510075501 53 352 1.0 3.0 0.05 0.47 0.47 92 1015.2
20260510075347 53 353 1.0 3.0 0.04 0.46 0.47 92 1015.3
20260510074846 53 348 1.0 3.0 0.05 0.46 0.46 92 1015.3
20260510074501 53 351 1.0 3.0 0.05 0.46 0.46 92 1015.3
20260510074345 53 353 1.0 3.0 0.05 0.46 0.46 92 1015.3
20260510073845 53 1 0.0 2.0 0.05 0.46 0.46 92 1015.6
20260510073500 53 6 0.0 2.0 0.05 0.46 0.46 93 1015.6
20260510073346 53 7 0.0 2.0 0.05 0.46 0.46 93 1015.6
20260510072846 53 11 0.0 1.0 0.05 0.45 0.45 93 1015.6
20260510072501 53 9 0.0 1.0 0.05 0.45 0.45 93 1015.6
20260510072345 53 10 0.0 1.0 0.05 0.45 0.45 93 1015.6
20260510071846 53 15 0.0 1.0 0.04 0.44 0.44 93 1015.6
20260510071500 53 21 0.0 1.0 0.05 0.44 0.44 93 1015.5
20260510071346 53 21 0.0 1.0 0.05 0.44 0.44 93 1015.5
20260510070845 53 21 0.0 1.0 0.06 0.44 0.44 93 1015.5
20260510070501 53 21 0.0 1.0 0.06 0.43 0.43 93 1015.5
20260510070347 53 21 0.0 1.0 0.06 0.43 0.43 93 1015.3
20260510070125 53 26 0.0 2.0 0.06 0.43 0.43 93 1015.3
20260510065457 53 30 0.0 2.0 0.06 0.43 0.43 92 1015.5
20260510065347 53 29 0.0 2.0 0.06 0.43 0.43 92 1015.3
20260510064846 53 38 0.0 2.0 0.06 0.42 0.42 93 1015.5
20260510064458 53 32 0.0 2.0 0.06 0.42 0.42 93 1015.5
20260510064346 53 31 0.0 2.0 0.06 0.42 0.42 93 1015.6
20260510063846 53 22 0.0 2.0 0.06 0.41 0.41 93 1015.5
20260510063457 53 30 0.0 2.0 0.07 0.41 0.41 93 1015.3
20260510063345 53 32 0.0 2.0 0.07 0.41 0.41 93 1015.3
20260510062846 53 25 0.0 0.0 0.07 0.40 0.40 93 1015.5
20260510062457 53 18 0.0 1.0 0.08 0.40 0.40 93 1015.5
20260510062346 53 18 0.0 1.0 0.08 0.40 0.40 93 1015.5
20260510061845 53 17 0.0 1.0 0.09 0.40 0.40 93 1015.3
20260510061620 53 16 0.0 1.0 0.08 0.39 0.39 93 1015.3
20260510061610 53 16 0.0 1.0 0.08 0.39 0.39 93 1015.3
20260510060846 53 16 0.0 1.0 0.08 0.39 0.39 92 1015.3
20260510060457 53 16 0.0 1.0 0.08 0.38 0.38 92 1015.3
20260510060345 53 16 0.0 1.0 0.08 0.38 0.38 92 1015.5
20260510055847 53 16 0.0 1.0 0.08 0.37 0.37 92 1015.3
20260510055455 53 32 0.0 1.0 0.08 0.37 0.37 92 1015.5
20260510055347 53 38 0.0 1.0 0.09 0.37 0.37 92 1015.3
20260510054846 53 61 0.0 1.0 0.09 0.36 0.36 92 1015.5
20260510054452 52 64 0.0 1.0 0.09 0.35 0.35 92 1015.5
20260510054349 52 64 0.0 1.0 0.09 0.35 0.35 92 1015.3
20260510053902 53 27 0.0 3.0 0.10 0.34 0.34 92 1015.6
20260510053857 53 53 0.0 2.0 0.10 0.35 0.35 92 1015.6
20260510053613 53 34 0.0 3.0 0.10 0.34 0.34 92 1015.6
20260510052847 53 6 0.0 3.0 0.10 0.33 0.33 92 1015.6
20260510052452 53 355 0.0 3.0 0.10 0.32 0.32 92 1015.5
20260510052346 53 353 1.0 3.0 0.10 0.32 0.32 92 1015.5
20260510051846 53 343 1.0 3.0 0.10 0.31 0.31 92 1015.5
20260510051452 53 346 1.0 3.0 0.11 0.31 0.31 92 1015.5
20260510051350 53 346 1.0 3.0 0.12 0.31 0.31 92 1015.5
20260510050844 53 349 1.0 2.0 0.12 0.31 0.31 92 1015.5
20260510050453 53 345 1.0 2.0 0.11 0.30 0.30 91 1015.5
20260510050345 53 349 1.0 2.0 0.11 0.30 0.30 91 1015.5
20260510045841 53 30 1.0 2.0 0.11 0.29 0.29 91 1015.6
20260510045452 53 66 0.0 2.0 0.11 0.29 0.29 91 1015.7
20260510045342 53 71 0.0 2.0 0.11 0.28 0.29 91 1015.7
20260510044842 53 73 1.0 4.0 0.13 0.28 0.28 91 1015.6
20260510044452 53 69 1.0 4.0 0.13 0.27 0.27 91 1015.6
20260510044341 53 67 1.0 4.0 0.12 0.26 0.27 91 1015.8
20260510044114 53 59 1.0 4.0 0.10 0.24 0.25 90 1015.8
20260510043617 53 45 1.0 4.0 0.09 0.24 0.24 90 1015.8
20260510043558 53 48 1.0 4.0 0.09 0.24 0.24 90 1015.8
20260510043118 53 26 0.0 2.0 0.09 0.23 0.23 90 1015.8
20260510042448 53 17 0.0 1.0 0.08 0.22 0.22 90 1015.7
20260510042340 53 16 0.0 1.0 0.08 0.22 0.22 90 1015.7
20260510041841 53 12 0.0 2.0 0.07 0.21 0.21 90 1015.7
20260510041449 53 9 0.0 2.0 0.06 0.20 0.20 89 1015.7
20260510041340 53 8 0.0 2.0 0.06 0.20 0.20 89 1015.7
20260510040841 53 5 0.0 2.0 0.05 0.19 0.20 89 1015.7
20260510040449 53 0 1.0 2.0 0.05 0.19 0.19 78 1015.7
20260510040341 53 359 1.0 2.0 0.05 0.19 0.19 78 1015.7
20260510040117 53 2 1.0 2.0 0.04 0.18 0.18 78 1015.6
20260510035449 53 12 1.0 2.0 0.04 0.18 0.18 78 1015.7
20260510035340 53 15 1.0 1.0 0.03 0.17 0.17 78 1015.7
20260510034843 55 19 1.0 1.0 0.00 0.14 0.14 78 1015.8
20260510034607 55 19 1.0 1.0 0.00 0.14 0.14 78 1015.7
20260510034558 55 19 1.0 1.0 0.00 0.14 0.14 78 1015.7
20260510033835 55 19 1.0 1.0 0.01 0.14 0.14 78 1015.7
20260510033448 55 19 1.0 1.0 0.12 0.14 0.14 78 1015.7
20260510033336 55 19 1.0 1.0 0.12 0.14 0.14 78 1015.7
20260510032846 55 19 1.0 1.0 0.12 0.14 0.14 78 1015.8
20260510032841 55 19 1.0 1.0 0.12 0.14 0.14 78 1015.7
20260510032600 55 19 1.0 1.0 0.12 0.14 0.14 78 1015.8
20260510032102 55 19 1.0 1.0 0.12 0.14 0.14 78 1015.8
20260510031447 55 19 1.0 1.0 0.12 0.14 0.14 78 1015.9
20260510031336 55 19 1.0 1.0 0.12 0.14 0.14 78 1015.9
20260510030834 55 19 1.0 1.0 0.12 0.14 0.14 78 1015.9
20260510030447 55 19 1.0 1.0 0.12 0.14 0.14 78 1016.0
20260510030333 55 19 1.0 1.0 0.12 0.14 0.14 78 1015.9
20260510025832 55 19 1.0 2.0 0.14 0.14 0.14 78 1016.0
20260510025443 55 19 1.0 2.0 0.14 0.14 0.14 78 1015.9
20260510025331 55 19 1.0 2.0 0.14 0.14 0.14 78 1016.0
20260510024831 55 21 1.0 2.0 0.14 0.14 0.14 78 1016.0
20260510024445 55 24 0.0 2.0 0.14 0.14 0.14 78 1016.1
20260510024331 55 25 0.0 2.0 0.14 0.14 0.14 78 1016.3
20260510023832 55 27 0.0 1.0 0.13 0.13 0.13 78 1016.3
20260510023442 57 26 0.0 0.0 0.02 0.02 0.02 78 1016.4
20260510023334 57 26 0.0 0.0 0.02 0.02 0.02 78 1016.4
20260510022831 57 26 0.0 0.0 0.02 0.02 0.02 78 1016.5
20260510022442 57 26 0.0 0.0 0.02 0.02 0.02 78 1016.3
20260510022331 57 26 0.0 1.0 0.02 0.02 0.02 78 1016.2
20260510021831 57 26 0.0 1.0 0.02 0.02 0.02 78 1016.0
20260510021442 57 26 0.0 2.0 0.02 0.02 0.02 78 1015.9
20260510021331 57 26 0.0 2.0 0.02 0.02 0.02 78 1015.9
20260510020832 57 23 0.0 2.0 0.02 0.02 0.02 78 1015.8
20260510020601 57 28 1.0 2.0 0.02 0.02 0.02 78 1015.6
20260510020547 57 23 1.0 2.0 0.02 0.02 0.02 78 1015.7
20260510020108 56 52 0.0 2.0 0.00 0.00 0.00 78 1015.6
20260510015439 58 67 0.0 0.0 0.00 0.00 0.00 78 1015.9
20260510015331 58 67 0.0 0.0 0.00 0.00 0.00 78 1015.8
20260510014832 58 67 0.0 0.0 0.00 0.00 0.00 78 1016.0
20260510014439 58 67 0.0 0.0 0.00 0.00 0.00 78 1016.0
20260510014331 58 67 0.0 0.0 0.00 0.00 0.00 78 1016.0
20260510013831 58 67 0.0 0.0 0.00 0.00 0.00 78 1016.2
20260510013439 58 67 0.0 0.0 0.00 0.00 0.00 78 1016.3
20260510013331 58 67 0.0 0.0 0.00 0.00 0.00 78 1016.3
20260510013103 58 67 0.0 0.0 0.00 0.00 0.00 78 1016.4
20260510012437 58 67 0.0 0.0 0.00 0.00 0.00 78 1016.5
20260510012332 58 67 0.0 0.0 0.00 0.00 0.00 78 1016.5
20260510011832 58 67 0.0 0.0 0.00 0.00 0.00 78 1016.6
20260510011438 58 67 0.0 0.0 0.00 0.00 0.00 78 1016.6
20260510011329 58 67 0.0 0.0 0.00 0.00 0.00 78 1016.6
20260510010830 58 67 0.0 0.0 0.00 0.00 0.00 78 1016.7
20260510010437 58 67 0.0 0.0 0.00 0.00 0.00 78 1016.7
20260510010328 58 67 0.0 0.0 0.00 0.00 0.00 78 1016.7
20260510005827 58 67 0.0 0.0 0.00 0.00 0.00 78 1016.6
20260510005437 58 67 0.0 0.0 0.00 0.00 0.00 78 1016.6
20260510005329 58 67 0.0 0.0 0.00 0.00 0.00 78 1016.6
20260510004825 58 67 0.0 0.0 0.00 0.00 0.00 78 1016.6
20260510004437 58 67 0.0 0.0 0.00 0.00 0.00 78 1016.7
20260510004326 58 67 0.0 0.0 0.00 0.00 0.00 78 1017.2
20260510003826 58 67 0.0 0.0 0.00 0.00 0.00 78 1017.0
20260510003437 58 67 0.0 0.0 0.00 0.00 0.00 78 1017.2
20260510003325 58 67 0.0 0.0 0.00 0.00 0.00 78 1017.2
20260510002825 58 67 0.0 0.0 0.00 0.00 0.00 78 1017.3
20260510002433 58 67 0.0 0.0 0.00 0.00 0.00 78 1017.4
20260510002326 58 67 0.0 0.0 0.00 0.00 0.00 78 1017.3
20260510001826 58 67 0.0 0.0 0.00 0.00 0.00 78 1017.3
20260510001433 58 67 0.0 0.0 0.00 0.00 0.00 78 1017.4
20260510001325 58 67 0.0 0.0 0.00 0.00 0.00 78 1017.4
20260510000825 58 67 0.0 0.0 0.00 0.00 0.00 78 1017.5
20260510000433 58 67 0.0 0.0 0.00 0.00 0.00 78 1017.5
20260510000329 58 67 0.0 0.0 0.00 0.00 0.00 78 1017.5
20260509235826 58 67 0.0 0.0 0.00 0.00 0.00 78 1017.5
20260509235432 58 67 0.0 0.0 0.00 0.00 0.00 78 1017.6
20260509235326 58 67 0.0 0.0 0.00 0.00 0.00 78 1017.6
20260509234826 58 67 0.0 0.0 0.00 0.00 0.00 78 1017.7
20260509234433 58 67 0.0 0.0 0.00 0.00 0.00 78 1017.7
20260509234325 58 67 0.0 0.0 0.00 0.00 0.00 78 1017.7
20260509233828 58 67 0.0 1.0 0.00 0.00 0.00 77 1017.8
20260509233604 58 67 0.0 2.0 0.00 0.00 0.00 77 1017.9
20260509233546 58 67 0.0 2.0 0.00 0.00 0.00 77 1017.8
20260509232827 58 67 0.0 2.0 0.00 0.00 0.00 76 1018.0
20260509232605 58 64 0.0 2.0 0.00 0.00 0.00 76 1018.0
20260509232547 58 65 0.0 2.0 0.00 0.00 0.00 76 1018.0
20260509232103 59 59 0.0 2.0 0.00 0.00 0.00 76 1017.9
20260509231434 59 56 0.0 1.0 0.00 0.00 0.00 76 1018.0
20260509231327 59 56 0.0 1.0 0.00 0.00 0.00 76 1017.9
20260509230825 59 56 0.0 0.0 0.00 0.00 0.00 76 1018.0
20260509230431 59 56 0.0 1.0 0.00 0.00 0.00 76 1017.9
20260509230323 59 56 0.0 1.0 0.00 0.00 0.00 76 1018.0
20260509225822 59 56 0.0 1.0 0.00 0.00 0.00 75 1018.0
20260509225434 59 56 0.0 1.0 0.00 0.00 0.00 75 1017.9
20260509225322 59 56 0.0 1.0 0.00 0.00 0.00 75 1018.0
20260509224826 59 56 0.0 1.0 0.00 0.00 0.00 74 1018.0
20260509224431 59 56 0.0 2.0 0.00 0.00 0.00 74 1018.0
20260509224321 59 56 0.0 2.0 0.00 0.00 0.00 74 1018.1
20260509223821 59 56 0.0 2.0 0.00 0.00 0.00 75 1018.1
20260509223430 59 56 0.0 2.0 0.00 0.00 0.00 75 1018.1
20260509223321 59 56 0.0 2.0 0.00 0.00 0.00 75 1018.2
20260509222820 59 58 0.0 2.0 0.00 0.00 0.00 75 1018.2
20260509222428 59 60 0.0 2.0 0.00 0.00 0.00 75 1018.2
20260509222318 59 60 0.0 2.0 0.00 0.00 0.00 75 1018.3
20260509221817 58 61 0.0 2.0 0.00 0.00 0.00 76 1018.3
20260509221551 59 63 0.0 2.0 0.00 0.00 0.00 76 1018.3
20260509221540 59 63 0.0 2.0 0.00 0.00 0.00 76 1018.3
20260509220815 59 63 0.0 1.0 0.00 0.00 0.00 75 1018.3
20260509220429 59 63 0.0 1.0 0.00 0.00 0.00 75 1018.2
20260509220316 59 63 0.0 1.0 0.00 0.00 0.00 76 1018.3
20260509215816 59 63 0.0 1.0 0.00 0.00 0.00 76 1018.3
20260509215427 59 63 0.0 1.0 0.00 0.00 0.00 76 1018.3
20260509215316 59 63 0.0 2.0 0.00 0.00 0.00 76 1018.3
20260509215311 59 63 0.0 2.0 0.00 0.00 0.00 76 1018.3
20260509214427 59 63 0.0 2.0 0.00 0.00 0.00 75 1018.5
20260509214316 59 63 0.0 2.0 0.00 0.00 0.00 75 1018.3
20260509213816 59 65 1.0 2.0 0.00 0.00 0.00 75 1018.3
20260509213427 60 63 1.0 2.0 0.00 0.00 0.00 74 1018.2
20260509213319 60 63 1.0 2.0 0.00 0.00 0.00 74 1018.2
20260509212816 60 63 0.0 2.0 0.00 0.00 0.00 70 1018.2
20260509212423 60 67 0.0 3.0 0.00 0.00 0.00 71 1018.4
20260509212316 60 67 0.0 3.0 0.00 0.00 0.00 71 1018.3
20260509211816 60 67 0.0 4.0 0.00 0.00 0.00 71 1018.2
20260509211422 60 65 1.0 7.0 0.00 0.00 0.00 71 1018.2
20260509211315 60 65 1.0 7.0 0.00 0.00 0.00 71 1018.3
20260509210816 60 60 1.0 7.0 0.00 0.00 0.00 70 1018.3
20260509210422 60 62 2.0 7.0 0.00 0.00 0.00 70 1018.2
20260509210315 60 63 3.0 7.0 0.00 0.00 0.00 71 1018.2
20260509205817 60 71 3.0 7.0 0.00 0.00 0.00 73 1018.1
20260509205553 60 69 1.0 6.0 0.00 0.00 0.00 73 1018.2
20260509205537 60 70 2.0 7.0 0.00 0.00 0.00 73 1018.2
20260509204818 60 66 0.0 1.0 0.00 0.00 0.00 73 1018.1
20260509204422 60 66 0.0 1.0 0.00 0.00 0.00 73 1018.0
20260509204316 60 66 0.0 1.0 0.00 0.00 0.00 73 1018.1
20260509203816 60 66 0.0 1.0 0.00 0.00 0.00 73 1018.1
20260509203425 60 66 0.0 1.0 0.00 0.00 0.00 73 1018.2
20260509203315 60 66 0.0 1.0 0.00 0.00 0.00 74 1018.2
20260509202819 60 67 0.0 1.0 0.00 0.00 0.00 73 1018.1
20260509202423 60 67 0.0 1.0 0.00 0.00 0.00 73 1018.0
20260509202316 60 67 0.0 1.0 0.00 0.00 0.00 73 1017.9
20260509202047 60 66 0.0 1.0 0.00 0.00 0.00 72 1018.0
20260509201422 61 66 0.0 1.0 0.00 0.00 0.00 70 1018.0
20260509201315 61 67 0.0 1.0 0.00 0.00 0.00 70 1018.0
20260509200813 60 67 0.0 1.0 0.00 0.00 0.00 71 1018.2
20260509200422 60 64 0.0 1.0 0.00 0.00 0.00 72 1018.1
20260509200314 60 63 0.0 1.0 0.00 0.00 0.00 72 1018.1
20260509200049 60 59 0.0 0.0 0.00 0.00 0.00 71 1018.1
20260509195419 60 57 0.0 0.0 0.00 0.00 0.00 71 1018.2
20260509195312 60 56 0.0 0.0 0.00 0.00 0.00 71 1018.2
20260509194811 61 56 0.0 0.0 0.00 0.00 0.00 71 1017.9
20260509194420 61 56 0.0 0.0 0.00 0.00 0.00 71 1017.8
20260509194311 61 56 0.0 0.0 0.00 0.00 0.00 71 1017.8
20260509193812 61 56 0.0 0.0 0.00 0.00 0.00 70 1017.8
20260509193417 61 56 0.0 0.0 0.00 0.00 0.00 70 1017.7
20260509193312 61 56 0.0 0.0 0.00 0.00 0.00 70 1017.8
20260509192811 61 56 0.0 1.0 0.00 0.00 0.00 70 1017.7
20260509192416 61 56 0.0 4.0 0.00 0.00 0.00 70 1017.7
20260509192310 61 56 0.0 4.0 0.00 0.00 0.00 70 1017.7
20260509191808 61 56 0.0 4.0 0.00 0.00 0.00 70 1017.6
20260509191417 61 57 1.0 4.0 0.00 0.00 0.00 69 1017.6
20260509191312 61 60 1.0 4.0 0.00 0.00 0.00 69 1017.6
20260509191303 61 65 1.0 4.0 0.00 0.00 0.00 67 1017.5
20260509190417 61 66 0.0 2.0 0.00 0.00 0.00 69 1017.4
20260509190307 61 63 0.0 2.0 0.00 0.00 0.00 68 1017.4
20260509185806 61 61 0.0 2.0 0.00 0.00 0.00 68 1017.4
20260509185417 61 84 0.0 2.0 0.00 0.00 0.00 69 1017.4
20260509185306 61 94 0.0 2.0 0.00 0.00 0.00 69 1017.4
20260509184804 61 128 0.0 2.0 0.00 0.00 0.00 69 1017.4
20260509184417 61 129 0.0 0.0 0.00 0.00 0.00 69 1017.4
20260509184304 61 129 0.0 0.0 0.00 0.00 0.00 69 1017.4
20260509183804 62 127 0.0 0.0 0.00 0.00 0.00 69 1017.4
20260509183416 62 125 0.0 0.0 0.00 0.00 0.00 68 1017.2
20260509183319 62 91 0.0 0.0 0.00 0.00 0.00 66 1017.4
20260509183308 62 123 0.0 0.0 0.00 0.00 0.00 68 1017.0
20260509182417 63 67 0.0 0.0 0.00 0.00 0.00 66 1017.3
20260509182301 64 63 0.0 0.0 0.00 0.00 0.00 62 1017.4
20260509181802 64 63 0.0 2.0 0.00 0.00 0.00 62 1017.4
20260509181417 64 63 0.0 2.0 0.00 0.00 0.00 62 1017.2
20260509181302 64 63 0.0 2.0 0.00 0.00 0.00 62 1017.3
20260509180801 64 63 0.0 2.0 0.00 0.00 0.00 62 1017.2
20260509180417 64 60 1.0 2.0 0.00 0.00 0.00 62 1017.2
20260509180301 64 55 1.0 2.0 0.00 0.00 0.00 62 1017.2
20260509175801 64 36 0.0 1.0 0.00 0.00 0.00 63 1017.2
20260509175419 64 25 0.0 1.0 0.00 0.00 0.00 61 1017.2
20260509175301 64 25 0.0 1.0 0.00 0.00 0.00 61 1017.2
20260509174805 65 25 0.0 1.0 0.00 0.00 0.00 59 1017.3
20260509174418 65 23 0.0 1.0 0.00 0.00 0.00 60 1017.3
20260509174301 65 22 0.0 1.0 0.00 0.00 0.00 60 1017.3
20260509173801 65 32 0.0 2.0 0.00 0.00 0.00 58 1017.4
20260509173416 66 54 0.0 2.0 0.00 0.00 0.00 56 1017.4
20260509173301 66 51 0.0 2.0 0.00 0.00 0.00 56 1017.4
20260509172800 67 55 0.0 2.0 0.00 0.00 0.00 53 1017.4
20260509172533 67 43 0.0 2.0 0.00 0.00 0.00 54 1017.4
20260509172520 67 31 0.0 2.0 0.00 0.00 0.00 56 1017.4
20260509171757 67 70 0.0 2.0 0.00 0.00 0.00 52 1017.5
20260509171416 68 104 0.0 2.0 0.00 0.00 0.00 53 1017.6
20260509171258 67 111 0.0 2.0 0.00 0.00 0.00 54 1017.6
20260509170757 67 100 0.0 2.0 0.00 0.00 0.00 52 1017.7
20260509170539 67 53 1.0 3.0 0.00 0.00 0.00 53 1017.8
20260509170523 67 68 1.0 3.0 0.00 0.00 0.00 53 1017.7
20260509165758 67 37 1.0 3.0 0.00 0.00 0.00 54 1017.7
20260509165416 67 38 1.0 3.0 0.00 0.00 0.00 55 1017.6
20260509165257 67 41 1.0 3.0 0.00 0.00 0.00 55 1017.6
20260509164757 67 18 1.0 4.0 0.00 0.00 0.00 55 1017.5
20260509164417 67 32 0.0 5.0 0.00 0.00 0.00 55 1017.7
20260509164255 67 32 0.0 5.0 0.00 0.00 0.00 54 1017.7
20260509163755 67 27 1.0 6.0 0.00 0.00 0.00 55 1017.7
20260509163418 67 10 2.0 6.0 0.00 0.00 0.00 55 1017.7
20260509163256 67 8 2.0 6.0 0.00 0.00 0.00 55 1017.6
20260509162756 67 15 2.0 6.0 0.00 0.00 0.00 54 1017.6
20260509162418 67 22 2.0 6.0 0.00 0.00 0.00 54 1017.7
20260509162253 67 38 2.0 6.0 0.00 0.00 0.00 54 1017.7
20260509161754 67 85 1.0 5.0 0.00 0.00 0.00 54 1017.8
20260509161417 67 56 1.0 8.0 0.00 0.00 0.00 54 1017.8
20260509161254 67 48 1.0 8.0 0.00 0.00 0.00 54 1017.8
20260509160751 67 11 1.0 8.0 0.00 0.00 0.00 54 1017.8
20260509160525 67 12 1.0 8.0 0.00 0.00 0.00 54 1017.8
20260509160510 67 13 2.0 8.0 0.00 0.00 0.00 53 1017.9
20260509155751 67 2 2.0 8.0 0.00 0.00 0.00 54 1017.9
20260509155415 67 19 1.0 6.0 0.00 0.00 0.00 53 1018.1
20260509155252 67 21 1.0 6.0 0.00 0.00 0.00 53 1018.0
20260509154752 67 45 2.0 6.0 0.00 0.00 0.00 52 1018.1
20260509154413 67 41 2.0 6.0 0.00 0.00 0.00 52 1018.0
20260509154256 68 27 1.0 4.0 0.00 0.00 0.00 51 1018.1
20260509154252 67 54 2.0 5.0 0.00 0.00 0.00 52 1018.0
20260509153415 68 6 1.0 4.0 0.00 0.00 0.00 52 1018.1
20260509153251 68 348 1.0 4.0 0.00 0.00 0.00 51 1018.1
20260509152751 69 293 1.0 4.0 0.00 0.00 0.00 51 1018.2
20260509152413 69 267 1.0 5.0 0.00 0.00 0.00 50 1018.1
20260509152251 69 271 1.0 5.0 0.00 0.00 0.00 50 1018.1
20260509152027 69 340 1.0 7.0 0.00 0.00 0.00 50 1018.2
20260509151413 69 302 1.0 7.0 0.00 0.00 0.00 52 1018.3
20260509151251 69 314 1.0 7.0 0.00 0.00 0.00 52 1018.3
20260509150754 69 220 1.0 7.0 0.00 0.00 0.00 52 1018.3
20260509150413 68 185 1.0 7.0 0.00 0.00 0.00 52 1018.3
20260509150250 68 172 2.0 8.0 0.00 0.00 0.00 51 1018.2
20260509150024 68 82 2.0 8.0 0.00 0.00 0.00 52 1018.2
20260509145412 67 35 2.0 8.0 0.00 0.00 0.00 51 1018.2
20260509145251 67 28 3.0 8.0 0.00 0.00 0.00 51 1018.2
20260509144750 67 41 3.0 8.0 0.00 0.00 0.00 53 1018.3
20260509144413 68 75 2.0 8.0 0.00 0.00 0.00 52 1018.4
20260509144248 68 145 1.0 5.0 0.00 0.00 0.00 53 1018.5
20260509144015 68 206 1.0 4.0 0.00 0.00 0.00 52 1018.3
20260509143411 68 217 1.0 4.0 0.00 0.00 0.00 53 1018.3
20260509143246 68 242 1.0 5.0 0.00 0.00 0.00 53 1018.3
20260509142746 68 332 1.0 8.0 0.00 0.00 0.00 54 1018.4
20260509142413 68 333 2.0 8.0 0.00 0.00 0.00 54 1018.3
20260509142246 68 334 2.0 8.0 0.00 0.00 0.00 55 1018.2
20260509141746 68 349 3.0 8.0 0.00 0.00 0.00 55 1018.2
20260509141413 68 19 4.0 8.0 0.00 0.00 0.00 56 1018.1
20260509141245 68 20 4.0 9.0 0.00 0.00 0.00 56 1018.1
20260509141021 68 348 3.0 9.0 0.00 0.00 0.00 55 1018.1
20260509140412 68 353 4.0 9.0 0.00 0.00 0.00 54 1018.1
20260509140246 68 0 4.0 9.0 0.00 0.00 0.00 54 1018.1
20260509135746 69 28 4.0 9.0 0.00 0.00 0.00 53 1018.2
20260509135412 69 327 2.0 9.0 0.00 0.00 0.00 54 1018.3
20260509135246 69 301 2.0 8.0 0.00 0.00 0.00 52 1018.3
20260509134746 69 306 2.0 8.0 0.00 0.00 0.00 53 1018.3
20260509134412 69 308 3.0 10.0 0.00 0.00 0.00 52 1018.3
20260509134244 69 285 2.0 10.0 0.00 0.00 0.00 50 1018.3
20260509134011 70 291 2.0 10.0 0.00 0.00 0.00 51 1018.3
20260509133412 69 302 2.0 12.0 0.00 0.00 0.00 52 1018.3
20260509133241 69 45 2.0 12.0 0.00 0.00 0.00 52 1018.3
20260509132741 69 165 2.0 12.0 0.00 0.00 0.00 50 1018.4
20260509132412 69 162 2.0 12.0 0.00 0.00 0.00 51 1018.5
20260509132241 69 148 3.0 12.0 0.00 0.00 0.00 51 1018.5
20260509131742 70 176 3.0 12.0 0.00 0.00 0.00 51 1018.4
20260509131412 70 231 3.0 10.0 0.00 0.00 0.00 52 1018.5
20260509131241 70 266 3.0 10.0 0.00 0.00 0.00 51 1018.4